Miscellaneous Local Product
Issued by NWS North Platte, NE

Home | Current Version | Previous Version | Text Only | Print | Product List | Glossary On
Versions: 1 2 3 4 5 6 7 8 9 10 11 12 13 14 15 16 17 18 19 20 21 22 23 24 25 26 27 28 29 30 31 32 33 34 35 36 37 38 39 40 41 42 43 44 45 46 47 48 49 50
952
AXUS43 KLBF 010010
MISLBF


WESTERN AND NORTH CENTRAL NEBRASKA HOURLY WEATHER ROUNDUP
NATIONAL WEATHER SERVICE NORTH PLATTE NE
700 PM CDT SAT APR 30 2016

NOTE: "FAIR" INDICATES FEW OR NO CLOUDS BELOW 12,000 FEET WITH NO
SIGNIFICANT WEATHER AND/OR OBSTRUCTIONS TO VISIBILITY.

NOTE: STATIONS NOT REPORTING VARIABLES SUCH AS SKY/WEATHER OR
PRESSURE ARE PROVIDED BY RAWS AND APRS NETWORKS AND ARE NOT UNDER
NATIONAL WEATHER SERVICE QUALITY CONTROL.

...OBSERVATIONS IN AND NEAR THE EASTERN PANHANDLE OF NEBRASKA...

CITY           SKY/WX    TMP DP  RH WIND       PRES   REMARKS
PINE RIDGE     LGT RAIN  44  30  57 NE18G37   30.07R
CHADRON        CLOUDY    46  33  60 N18G26    30.07R
ALLIANCE       LGT SNOW  34  32  92 N17       30.03R FOG     WCI  23
SIDNEY         SNOW      33  32  96 N22       30.03R VSB 1/2 WCI  21
BIG SPRINGS      N/A     35  33  94 N12         N/A  WCI  27
$$

...OBSERVATIONS IN NORTHERN NEBRASKA AND FAR SOUTHERN SOUTH DAKOTA...

CITY           SKY/WX    TMP DP  RH WIND       PRES   REMARKS
WINNER         LGT RAIN  43  38  82 NE23G37   30.03R
VALENTINE      LGT RAIN  38  35  89 NE18G29   30.01R WCI  28
THEDFORD       CLOUDY    35  35  96 N14G22    29.94R WCI  26
AINSWORTH      LGT RAIN  39  38  95 N17G31    29.95R WCI  30
O`NEILL        LGT RAIN  43  42  95 NE24      29.90R
ORD            LGT RAIN  44  42  93 N13       29.84R
BROKEN BOW     RAIN      38  36  92 N16       29.86R FOG     WCI  29
VALENTINE NWR    N/A     35  34  98 N12G22      N/A  WCI  27
BUTTE            N/A     41  40  96 NE26G36     N/A
HALSEY           N/A     34  33  98 N9G17       N/A  WCI  27
CHAMBERS         N/A     44  43  97 E13         N/A
EWING            N/A     44  43  96 NE9G18      N/A
$$

...OBSERVATIONS IN SOUTHWEST NEBRASKA AND FAR NORTHEAST COLORADO...

CITY           SKY/WX    TMP DP  RH WIND       PRES   REMARKS
HOLYOKE        LGT SNOW  36  34  93 N21G29      N/A  WCI  24
IMPERIAL       CLOUDY    36  34  92 N17       29.94R WCI  26
OGALLALA       LGT RAIN  36  33  91 N16       29.96R WCI  26
NORTH PLATTE   CLOUDY    36  33  89 N18G28    29.90R WCI  26
MCCOOK         CLOUDY    39  35  86 N14       29.89R WCI  31
LEXINGTON      DRIZZLE   40  37  86 N16G22    29.86R WCI  32
PAXTON           N/A     36  35  95 N12         N/A  WCI  28
STAPLETON        N/A     34  32  93 CALM        N/A
GOTHENBURG       N/A     38  34  86 N12         N/A  WCI  30
CALLAWAY         N/A     35  33  94 N12         N/A  WCI  27
$$

...OBSERVATIONS IN CENTRAL LINCOLN COUNTY AREA...

CITY           SKY/WX    TMP DP  RH WIND       PRES   REMARKS
N.P. AIRPORT   CLOUDY    36  33  89 N18G28    29.90R WCI  26
N.P. DOWNTOWN    N/A     35  34  97 N10         N/A  WCI  27
N.P. SOUTHEAST   N/A     35  34  96 N10G20      N/A  WCI  27
N.P. HILLCREST   N/A     35  34  96 N20G26      N/A  WCI  24
$$

...SOME OBSERVATIONS FROM AROUND THE REGION...

CITY           SKY/WX    TMP DP  RH WIND       PRES   REMARKS
DENVER         LGT SNOW  34  30  85 N20       30.08R FOG     WCI  23
LARAMIE        CLOUDY    31  26  82 N13       30.09R WCI  21
CHEYENNE       LGT SNOW  32  29  88 N15G28    30.07R VSB 3/4 WCI  22
SCOTTSBLUFF    LGT RAIN  38  32  79 N15       30.09R WCI  29
RAPID CITY     CLOUDY    50  31  48 NE20G29   30.12R
BISMARCK       MOSUNNY   58  29  33 NE12G22   30.20R
PIERRE         CLOUDY    53  36  52 NE20      30.06R
SIOUX FALLS    LGT RAIN  44  40  85 NE18G26   29.99R
OMAHA          CLOUDY    50  48  93 E8        29.80R FOG
GRAND ISLAND   CLOUDY    47  44  90 N10       29.81R
KANSAS CITY    PTSUNNY   64  50  60 NW9       29.77R
WICHITA        MOSUNNY   60  40  47 W17       29.83R
OKLAHOMA CITY  SUNNY     69  45  41 N15G24    29.80R
DALLAS         MOSUNNY   74  59  59 N10       29.77R
AMARILLO       SUNNY     60  37  42 NE6       29.90R
DODGE CITY     PTSUNNY   50  35  56 NW17G26   29.87R
HAYS           CLOUDY    48  36  61 NW13      29.85R
GOODLAND       MIX PCPN  37  34  89 NW22      29.91R WCI  26
$$




USA.gov is the U.S. government's official web portal to all federal, state and local government web resources and services.